Location: Cheadle
(51.0146°N, 113.5417°W)
Time: 10:38:36
(UTC+00:00)

TIGRISAT - Pass Details

Date: 05 December 2023
Orbit: 596 x 675 km, 97.7° (Epoch: 21 February)

Event Time Altitude Azimuth Distance (km) Brightness Sun altitude
Rises 00:02:42 0° 21° (NNE) 2,990 ? -5.3°
Reaches altitude 10° 00:05:11 10° 32° (NNE) 2,060 ? -5.6°
Maximum altitude 00:09:10 30° 94° (E) 1,138 ? -6.2°
Drops below altitude 10° 00:13:02 10° 157° (SSE) 2,000 ? -6.7°
Sets 00:15:24 0° 168° (SSE) 2,888 ? -7.0°
